This is the latest recevied weather packets stored in our database for station/object CT2HRB-13. If no packets are shown the sender has not sent any weather packets the latest 10 day(s).
| Time | Temp. | Humidity | Pressure | Rain* | Wind** | Luminosity | Snow |
|---|---|---|---|---|---|---|---|
| 1777726801 | 18.89° C | 73% | 1016.6 hPa | - | - | - | - |
| 1777726502 | 19.44° C | 73% | 1016.8 hPa | - | - | - | - |
| 1777726201 | 19.44° C | 72% | 1016.6 hPa | - | - | - | - |
| 1777725902 | 19.44° C | 70% | 1016.7 hPa | - | - | - | - |
| 1777725601 | 19.44° C | 71% | 1016.6 hPa | - | - | - | - |
| 1777725301 | 19.44° C | 70% | 1016.7 hPa | - | - | - | - |
| 1777725001 | 19.44° C | 70% | 1016.6 hPa | - | - | - | - |
| 1777724702 | 19.44° C | 70% | 1016.7 hPa | - | - | - | - |
| 1777724401 | 20° C | 69% | 1016.7 hPa | - | - | - | - |
| 1777724102 | 20° C | 70% | 1016.7 hPa | - | - | - | - |
| 1777723801 | 19.44° C | 71% | 1016.8 hPa | - | - | - | - |
| 1777723502 | 19.44° C | 72% | 1016.8 hPa | - | - | - | - |
| 1777723201 | 19.44° C | 74% | 1016.7 hPa | - | - | - | - |
| 1777722901 | 18.33° C | 75% | 1016.9 hPa | - | - | - | - |
| 1777722601 | 18.89° C | 74% | 1016.9 hPa | - | - | - | - |
| 1777722302 | 18.89° C | 76% | 1016.8 hPa | - | - | - | - |
| 1777722002 | 18.89° C | 75% | 1016.9 hPa | - | - | - | - |
| 1777721702 | 18.89° C | 75% | 1017 hPa | - | - | - | - |
| 1777721402 | 18.33° C | 76% | 1016.9 hPa | - | - | - | - |
| 1777721101 | 18.33° C | 77% | 1017.1 hPa | - | - | - | - |
| 1777720802 | 18.33° C | 76% | 1017 hPa | - | - | - | - |
| 1777720502 | 18.33° C | 76% | 1017 hPa | - | - | - | - |
| 1777720201 | 18.33° C | 79% | 1017.1 hPa | - | - | - | - |
| 1777719901 | 17.78° C | 80% | 1017 hPa | - | - | - | - |
| 1777719602 | 17.78° C | 80% | 1017.3 hPa | - | - | - | - |
* Rain since midnight (hover to see other rain measurements)
** Current wind speed in m/s (hover to see current wind gust speed)